Vertical_Velocity
1 2 1 3 3 3 4 2 1 0 -0 -1 -0 2 -0 1 2 -0 2 1 4 3
-0 0 1 1 3 2 2 2 4 3 3 1 2 -2 -0 2 3 0 0 3 2 4
4 2 2 0 -0 0 -0 1 2 2 2 2 2 1 -0 3 -0 1 0 1 -2 2
3 6 5 5 5 3 2 -0 1 -0 2 3 4 3 1 2 1 4 0 0 -0 -0
4 4 5 5 4 3 3 3 3 0 1 3 2 2 2 3 -0 -3 -2 -2 1 3
2 3 4 4 4 1 0 1 1 4 2 2 4 2 1 -3 2 3 3 0 1 1
2 0 -0 2 4 4 4 2 1 2 1 3 2 2 1 3 1 2 2 0 1 1
2 3 2 2 0 -1 1 -2 1 1 0 3 2 2 -2 -0 -1 -1 -1 2 1 -1
1 2 0 1 4 1 0 -1 -4 -3 -1 1 -1 -4 -3 -3 -1 2 1 1 2 2
-2 -2 -1 -2 -2 -3 -3 -3 -4 -2 -2 -2 -3 -2 -1 -1 0 -2 -0 2 0 0
-6 -3 -3 -3 -3 -6 -3 -1 -2 -2 -1 0 -0 -1 -2 -3 -3 2 1 1 0 1
-4 -8 -9 -7 -6 -3 -1 1 2 2 1 1 0 -0 -1 -4 4 -0 -2 -0 1 -1
-1 -4 -3 -4 -1 -2 -2 -4 -5 -6 -2 0 -1 -1 -2 -1 1 -1 0 1 2 -1
-5 -7 -2 -4 -3 -2 0 0 -1 -2 -0 -1 -1 -1 -1 -1 -3 -2 1 -0 1 -1
Height
5615 5619 5623 5626 5629 5631 5634 5636 5640 5644 5647 5650 5652 5654 5656 5659 5662 5664 5667 5668 5670 5671
5599 5604 5608 5612 5615 5618 5621 5622 5625 5628 5632 5635 5639 5641 5643 5645 5647 5649 5651 5653 5656 5658
5584 5587 5591 5595 5598 5602 5605 5608 5611 5613 5615 5618 5622 5624 5627 5629 5630 5632 5635 5637 5638 5641
5568 5571 5575 5579 5582 5585 5588 5591 5594 5597 5599 5602 5605 5607 5610 5613 5615 5617 5618 5619 5621 5622
5553 5556 5559 5563 5566 5569 5572 5575 5578 5580 5583 5586 5589 5591 5592 5594 5597 5598 5600 5602 5604 5607
5537 5540 5543 5546 5549 5553 5556 5559 5562 5565 5567 5569 5572 5573 5575 5577 5579 5583 5586 5588 5589 5591
5522 5525 5528 5530 5533 5537 5540 5544 5548 5550 5552 5554 5555 5556 5558 5562 5564 5566 5568 5570 5572 5573
5507 5510 5512 5515 5518 5522 5524 5527 5530 5532 5534 5536 5538 5540 5542 5544 5546 5548 5550 5552 5554 5555
5492 5495 5497 5500 5503 5506 5508 5511 5513 5515 5517 5518 5518 5520 5522 5525 5528 5530 5531 5532 5534 5536
5477 5480 5483 5485 5488 5490 5492 5494 5495 5497 5499 5500 5500 5501 5502 5504 5505 5507 5509 5511 5513 5514
5465 5467 5468 5469 5471 5473 5474 5475 5476 5477 5478 5480 5481 5482 5483 5485 5486 5489 5490 5491 5492 5494
5449 5451 5452 5454 5455 5455 5456 5457 5458 5459 5459 5460 5461 5462 5463 5466 5469 5469 5471 5472 5474 5476
5433 5435 5437 5437 5438 5438 5438 5439 5440 5441 5442 5443 5444 5445 5446 5448 5450 5451 5453 5455 5457 5458
5420 5422 5424 5426 5425 5424 5423 5423 5424 5426 5426 5427 5428 5428 5430 5431 5433 5435 5437 5438 5439 5441